QPF
0.00 0.00 0.00 0.00 0.00 0.00 0.01 0.00 0.02 0.03 0.00 0.01 0.00 0.01 0.00 0.00 0.00 0.00 0.00 0.00 0.00 0.00 0.00 0.01 0.02 0.00 0.00 0.00 0.00 0.00 0.00 0.00 0.00 0.00 0.00 0.00 0.00 0.00 0.00 0.00 0.00 0.00 0.00 0.00 0.00 0.00 0.00 0.00 0.00
0.00 0.00 0.00 0.00 0.00 0.00 0.04 0.00 0.02 0.00 0.00 0.00 0.00 0.00 0.00 0.00 0.00 0.00 0.00 0.00 0.00 0.00 0.00 0.00 0.00 0.00 0.00 0.00 0.00 0.00 0.00 0.00 0.00 0.00 0.00 0.00 0.00 0.00 0.00 0.00 0.00 0.00 0.00 0.00 0.00 0.00 0.00 0.00 0.00
0.00 0.00 0.00 0.00 0.00 0.00 0.00 0.00 0.00 0.00 0.00 0.03 0.03 0.00 0.00 0.00 0.00 0.00 0.00 0.00 0.00 0.00 0.00 0.00 0.00 0.00 0.00 0.01 0.00 0.01 0.01 0.00 0.00 0.00 0.00 0.00 0.00 0.00 0.00 0.00 0.00 0.00 0.00 0.00 0.00 0.00 0.00 0.00 0.00
0.00 0.00 0.00 0.00 0.02 0.02 0.00 0.00 0.00 0.00 0.00 0.01 0.01 0.00 0.00 0.00 0.00 0.00 0.00 0.00 0.00 0.00 0.00 0.00 0.00 0.01 0.01 0.01 0.03 0.04 0.03 0.00 0.00 0.00 0.00 0.00 0.00 0.00 0.00 0.00 0.00 0.00 0.00 0.00 0.00 0.00 0.00 0.00 0.00
0.00 0.00 0.00 0.00 0.00 0.00 0.00 0.00 0.00 0.00 0.00 0.00 0.00 0.00 0.00 0.00 0.00 0.00 0.00 0.00 0.00 0.00 0.00 0.00 0.01 0.00 0.00 0.00 0.00 0.00 0.00 0.00 0.00 0.02 0.00 0.00 0.00 0.00 0.00 0.00 0.00 0.00 0.00 0.00 0.00 0.01 0.00 0.00 0.00
0.00 0.00 0.00 0.00 0.00 0.00 0.00 0.00 0.00 0.00 0.00 0.00 0.00 0.00 0.00 0.00 0.00 0.00 0.00 0.00 0.00 0.00 0.00 0.00 0.00 0.00 0.00 0.00 0.00 0.00 0.00 0.00 0.00 0.00 0.00 0.03 0.00 0.00 0.00 0.01 0.00 0.00 0.00 0.00 0.00 0.00 0.01 0.00 0.00
0.00 0.00 0.00 0.00 0.00 0.00 0.00 0.00 0.00 0.00 0.00 0.00 0.00 0.00 0.00 0.00 0.00 0.00 0.00 0.00 0.00 0.00 0.00 0.00 0.00 0.00 0.00 0.00 0.00 0.00 0.00 0.00 0.00 0.00 0.00 0.00 0.00 0.00 0.00 0.00 0.00 0.00 0.00 0.00 0.00 0.00 0.01 0.02 0.00
0.00 0.00 0.00 0.00 0.00 0.00 0.00 0.00 0.00 0.00 0.00 0.00 0.00 0.00 0.00 0.00 0.00 0.00 0.00 0.00 0.00 0.00 0.00 0.00 0.00 0.00 0.00 0.00 0.00 0.00 0.00 0.00 0.00 0.00 0.00 0.00 0.00 0.00 0.00 0.00 0.00 0.00 0.00 0.00 0.00 0.00 0.00 0.01 0.03
0.00 0.00 0.00 0.00 0.00 0.00 0.00 0.00 0.00 0.00 0.00 0.00 0.00 0.00 0.00 0.00 0.00 0.00 0.00 0.00 0.00 0.00 0.00 0.00 0.00 0.00 0.00 0.00 0.00 0.00 0.00 0.00 0.00 0.00 0.00 0.00 0.00 0.01 0.03 0.01 0.04 0.04 0.00 0.00 0.00 0.00 0.00 0.00 0.00
0.00 0.00 0.00 0.00 0.00 0.01 0.00 0.00 0.00 0.01 0.00 0.00 0.00 0.00 0.00 0.00 0.00 0.00 0.00 0.00 0.00 0.00 0.00 0.00 0.00 0.00 0.00 0.00 0.00 0.00 0.00 0.00 0.00 0.00 0.00 0.00 0.00 0.01 0.04 0.04 0.09 0.07 0.06 0.06 0.04 0.03 0.01 0.00 0.00
0.00 0.00 0.00 0.00 0.00 0.00 0.00 0.00 0.00 0.00 0.00 0.00 0.00 0.00 0.00 0.00 0.00 0.00 0.00 0.00 0.00 0.00 0.00 0.00 0.00 0.00 0.00 0.00 0.00 0.00 0.00 0.00 0.00 0.00 0.00 0.00 0.00 0.00 0.00 0.01 0.06 0.09 0.08 0.09 0.08 0.05 0.03 0.03 0.04
0.00 0.00 0.00 0.00 0.00 0.01 0.00 0.00 0.00 0.00 0.00 0.00 0.00 0.00 0.00 0.00 0.00 0.00 0.00 0.00 0.00 0.00 0.00 0.00 0.00 0.00 0.00 0.00 0.00 0.00 0.00 0.00 0.00 0.00 0.00 0.00 0.00 0.00 0.00 0.05 0.01 0.00 0.00 0.00 0.01 0.00 0.00 0.01 0.03
0.00 0.00 0.00 0.01 0.00 0.00 0.00 0.00 0.00 0.00 0.00 0.00 0.00 0.00 0.00 0.00 0.00 0.00 0.00 0.00 0.00 0.00 0.00 0.00 0.01 0.00 0.00 0.00 0.00 0.00 0.00 0.00 0.00 0.00 0.00 0.00 0.00 0.03 0.00 0.00 0.02 0.02 0.01 0.01 0.04 0.01 0.00 0.00 0.04
0.00 0.00 0.00 0.01 0.00 0.01 0.01 0.00 0.00 0.00 0.00 0.00 0.00 0.00 0.00 0.00 0.00 0.00 0.00 0.00 0.00 0.00 0.00 0.00 0.00 0.00 0.00 0.00 0.00 0.00 0.00 0.00 0.01 0.00 0.00 0.00 0.00 0.01 0.00 0.00 0.03 0.06 0.08 0.02 0.06 0.07 0.03 0.01 0.00
0.00 0.00 0.00 0.00 0.01 0.01 0.05 0.00 0.00 0.00 0.00 0.00 0.00 0.00 0.00 0.00 0.00 0.00 0.00 0.00 0.00 0.00 0.00 0.00 0.00 0.00 0.00 0.00 0.00 0.00 0.00 0.00 0.00 0.00 0.00 0.03 0.00 0.06 0.07 0.02 0.00 0.02 0.08 0.02 0.00 0.00 0.01 0.02 0.01
0.00 0.00 0.00 0.03 0.01 0.02 0.09 0.00 0.01 0.00 0.00 0.00 0.00 0.00 0.00 0.00 0.00 0.00 0.00 0.00 0.00 0.00 0.00 0.00 0.00 0.00 0.00 0.00 0.00 0.00 0.00 0.00 0.00 0.00 0.00 0.03 0.05 0.05 0.07 0.06 0.04 0.08 0.04 0.00 0.01 0.02 0.00 0.01 0.01
0.00 0.00 0.00 0.01 0.00 0.02 0.09 0.00 0.00 0.00 0.00 0.00 0.00 0.00 0.00 0.00 0.00 0.00 0.00 0.00 0.00 0.00 0.00 0.00 0.00 0.00 0.00 0.00 0.00 0.00 0.00 0.00 0.00 0.02 0.02 0.02 0.03 0.05 0.15 0.15 0.06 0.06 0.01 0.00 0.01 0.05 0.01 0.00 0.00
0.00 0.00 0.00 0.00 0.00 0.03 0.07 0.02 0.00 0.00 0.00 0.00 0.00 0.00 0.00 0.00 0.00 0.00 0.00 0.00 0.00 0.00 0.00 0.00 0.00 0.00 0.00 0.00 0.00 0.00 0.00 0.00 0.00 0.03 0.06 0.12 0.12 0.22 0.26 0.28 0.18 0.12 0.03 0.01 0.00 0.00 0.00 0.03 0.01
0.00 0.00 0.00 0.00 0.00 0.06 0.04 0.04 0.01 0.00 0.00 0.00 0.00 0.00 0.00 0.00 0.00 0.00 0.00 0.00 0.00 0.00 0.00 0.00 0.00 0.00 0.00 0.00 0.00 0.00 0.00 0.00 0.00 0.00 0.06 0.09 0.07 0.14 0.22 0.29 0.32 0.30 0.23 0.18 0.07 0.04 0.06 0.06 0.04
0.00 0.00 0.00 0.00 0.00 0.00 0.00 0.00 0.01 0.00 0.00 0.00 0.00 0.00 0.00 0.00 0.00 0.00 0.00 0.00 0.00 0.00 0.00 0.00 0.00 0.00 0.00 0.00 0.00 0.00 0.00 0.00 0.00 0.00 0.01 0.04 0.09 0.08 0.14 0.25 0.28 0.31 0.25 0.13 0.01 0.01 0.03 0.03 0.01
0.00 0.00 0.00 0.00 0.00 0.00 0.00 0.00 0.00 0.00 0.00 0.00 0.00 0.00 0.01 0.00 0.01 0.00 0.00 0.00 0.00 0.00 0.00 0.00 0.00 0.00 0.00 0.00 0.00 0.00 0.00 0.00 0.02 0.06 0.09 0.00 0.02 0.03 0.11 0.05 0.05 0.09 0.02 0.00 0.01 0.02 0.01 0.02 0.04
0.00 0.00 0.00 0.00 0.00 0.00 0.00 0.00 0.00 0.00 0.00 0.00 0.00 0.00 0.00 0.01 0.01 0.01 0.00 0.00 0.00 0.00 0.00 0.00 0.00 0.00 0.00 0.00 0.00 0.00 0.00 0.00 0.02 0.07 0.02 0.04 0.02 0.00 0.00 0.00 0.00 0.00 0.00 0.00 0.05 0.02 0.00 0.02 0.05
0.00 0.00 0.00 0.00 0.00 0.00 0.00 0.00 0.00 0.00 0.00 0.00 0.00 0.00 0.00 0.00 0.00 0.00 0.01 0.01 0.01 0.00 0.00 0.00 0.00 0.00 0.00 0.00 0.00 0.00 0.00 0.01 0.10 0.07 0.03 0.04 0.00 0.00 0.00 0.00 0.00 0.00 0.00 0.00 0.00 0.01 0.00 0.00 0.01
0.00 0.00 0.00 0.00 0.00 0.00 0.00 0.00 0.00 0.00 0.00 0.00 0.00 0.00 0.00 0.00 0.00 0.00 0.00 0.01 0.01 0.01 0.00 0.00 0.00 0.00 0.00 0.00 0.00 0.00 0.00 0.01 0.08 0.02 0.01 0.00 0.00 0.00 0.00 0.00 0.00 0.00 0.00 0.00 0.00 0.00 0.00 0.00 0.00
0.00 0.00 0.00 0.00 0.00 0.00 0.00 0.00 0.00 0.00 0.00 0.00 0.00 0.00 0.00 0.00 0.00 0.00 0.00 0.00 0.02 0.01 0.00 0.00 0.00 0.00 0.00 0.00 0.00 0.00 0.00 0.03 0.12 0.02 0.00 0.00 0.00 0.00 0.00 0.00 0.00 0.00 0.00 0.00 0.00 0.00 0.00 0.00 0.00
0.00 0.00 0.00 0.00 0.00 0.00 0.00 0.00 0.00 0.00 0.00 0.00 0.00 0.00 0.00 0.00 0.00 0.00 0.00 0.00 0.03 0.02 0.00 0.00 0.00 0.00 0.00 0.00 0.00 0.00 0.00 0.07 0.10 0.04 0.00 0.00 0.00 0.00 0.00 0.00 0.00 0.00 0.00 0.00 0.00 0.00 0.00 0.00 0.00
0.00 0.00 0.00 0.00 0.00 0.00 0.00 0.00 0.00 0.00 0.00 0.00 0.00 0.00 0.00 0.00 0.00 0.00 0.00 0.00 0.01 0.02 0.02 0.02 0.01 0.00 0.00 0.00 0.00 0.00 0.06 0.13 0.05 0.01 0.00 0.00 0.00 0.00 0.00 0.00 0.00 0.00 0.00 0.00 0.00 0.00 0.00 0.00 0.00
0.00 0.00 0.00 0.00 0.00 0.00 0.00 0.00 0.00 0.00 0.00 0.00 0.00 0.00 0.00 0.00 0.00 0.00 0.00 0.00 0.01 0.02 0.03 0.02 0.01 0.00 0.00 0.00 0.00 0.00 0.06 0.07 0.01 0.00 0.00 0.00 0.00 0.00 0.00 0.00 0.00 0.00 0.00 0.00 0.00 0.00 0.00 0.00 0.00
0.00 0.00 0.00 0.00 0.00 0.00 0.00 0.00 0.00 0.00 0.00 0.00 0.00 0.00 0.00 0.00 0.00 0.00 0.00 0.00 0.00 0.01 0.02 0.01 0.00 0.00 0.00 0.00 0.00 0.00 0.06 0.02 0.00 0.00 0.00 0.00 0.00 0.00 0.00 0.00 0.00 0.00 0.00 0.00 0.00 0.00 0.00 0.00 0.00
0.00 0.00 0.00 0.00 0.00 0.00 0.00 0.00 0.00 0.00 0.00 0.00 0.00 0.00 0.00 0.00 0.00 0.00 0.00 0.00 0.00 0.00 0.00 0.00 0.00 0.00 0.00 0.00 0.00 0.00 0.01 0.00 0.00 0.00 0.00 0.00 0.00 0.00 0.00 0.00 0.00 0.00 0.00 0.00 0.00 0.00 0.00 0.00 0.00
MSLP
1008.13 1008.59 1009.12 1009.25 1009.50 1008.74 1008.77 1008.65 1008.29 1007.80 1007.61 1007.29 1007.07 1007.74 1008.25 1008.85 1009.37 1010.90 1010.78 1011.04 1011.53 1012.22 1012.48 1012.70 1012.86 1013.06 1013.26 1013.45 1013.64 1013.84 1013.96 1014.01 1014.14 1014.18 1014.33 1014.42 1014.48 1014.62 1014.68 1014.76 1014.81 1014.90 1015.06 1015.18 1015.24 1015.39 1015.55 1015.63 1015.73
1008.41 1008.84 1009.31 1009.26 1009.32 1009.17 1008.62 1008.10 1007.73 1007.21 1006.96 1007.11 1007.33 1007.72 1008.26 1009.02 1009.57 1010.44 1010.96 1011.38 1011.67 1012.24 1012.61 1012.81 1012.98 1013.25 1013.46 1013.70 1013.89 1013.94 1014.10 1014.19 1014.30 1014.39 1014.48 1014.50 1014.66 1014.73 1014.81 1014.85 1014.95 1015.03 1015.17 1015.30 1015.44 1015.53 1015.66 1015.78 1015.90
1008.06 1008.26 1008.99 1009.06 1009.28 1008.94 1008.39 1007.54 1007.19 1007.14 1007.05 1007.33 1007.56 1007.79 1008.61 1009.50 1010.10 1010.55 1010.80 1011.39 1011.79 1012.42 1012.68 1012.92 1013.10 1013.42 1013.58 1013.83 1013.91 1014.01 1014.15 1014.24 1014.43 1014.53 1014.59 1014.67 1014.75 1014.81 1014.91 1014.93 1015.03 1015.10 1015.31 1015.42 1015.47 1015.53 1015.73 1015.89 1016.01
1007.85 1008.38 1008.95 1008.90 1008.70 1007.96 1007.55 1007.11 1006.96 1007.15 1007.35 1007.20 1007.33 1008.17 1008.96 1009.13 1009.93 1010.38 1011.06 1011.60 1012.14 1012.66 1012.82 1012.92 1013.19 1013.42 1013.56 1013.73 1013.85 1014.00 1014.17 1014.33 1014.53 1014.77 1014.74 1014.81 1014.86 1014.95 1014.97 1015.05 1015.14 1015.31 1015.45 1015.55 1015.57 1015.68 1015.85 1016.03 1016.08
1007.95 1008.22 1008.96 1008.91 1008.53 1007.65 1006.93 1006.93 1006.94 1007.11 1007.22 1007.25 1007.44 1008.69 1009.62 1009.99 1010.06 1010.67 1011.30 1011.83 1012.30 1012.84 1012.90 1013.02 1013.26 1013.43 1013.60 1013.80 1013.95 1014.11 1014.26 1014.48 1014.63 1014.68 1014.74 1014.85 1014.98 1015.02 1015.08 1015.15 1015.28 1015.48 1015.56 1015.63 1015.68 1015.77 1015.90 1016.05 1016.22
1008.30 1008.85 1009.29 1009.13 1008.31 1007.18 1006.35 1006.75 1006.84 1006.85 1006.99 1007.36 1007.91 1008.68 1010.01 1010.22 1010.52 1011.14 1011.55 1012.02 1012.43 1012.73 1012.91 1013.19 1013.38 1013.57 1013.75 1013.91 1014.06 1014.19 1014.33 1014.47 1014.63 1014.70 1014.80 1014.89 1014.93 1015.06 1015.24 1015.30 1015.45 1015.62 1015.69 1015.77 1015.85 1015.96 1016.06 1016.22 1016.37
1008.59 1009.05 1009.37 1008.96 1007.94 1006.83 1006.03 1006.08 1006.48 1006.73 1006.77 1007.12 1007.42 1008.70 1010.06 1010.64 1010.91 1011.30 1011.88 1012.33 1012.67 1012.80 1013.05 1013.34 1013.51 1013.61 1013.78 1013.96 1014.17 1014.35 1014.51 1014.58 1014.65 1014.75 1014.90 1014.96 1015.08 1015.17 1015.32 1015.49 1015.62 1015.68 1015.72 1015.84 1016.03 1016.11 1016.20 1016.35 1016.38
1008.34 1008.81 1008.74 1008.25 1007.40 1005.86 1005.18 1005.42 1005.63 1006.37 1006.46 1006.96 1007.21 1008.50 1009.67 1010.27 1010.91 1011.53 1012.22 1012.79 1013.16 1013.38 1013.39 1013.47 1013.61 1013.74 1013.92 1014.05 1014.21 1014.43 1014.60 1014.65 1014.70 1014.80 1014.96 1015.14 1015.21 1015.26 1015.39 1015.62 1015.69 1015.71 1015.79 1015.96 1016.02 1016.17 1016.27 1016.41 1016.31
1008.00 1008.37 1008.04 1007.31 1006.92 1005.95 1005.17 1005.27 1005.91 1005.95 1006.47 1006.53 1007.25 1007.68 1008.59 1010.00 1010.94 1011.82 1012.61 1013.19 1013.59 1013.70 1013.75 1013.68 1013.73 1013.86 1013.97 1014.19 1014.33 1014.50 1014.62 1014.63 1014.72 1014.88 1015.08 1015.27 1015.41 1015.45 1015.51 1015.69 1015.87 1015.78 1015.88 1015.95 1015.99 1016.08 1016.21 1016.25 1016.29
1007.54 1007.78 1006.79 1005.81 1005.64 1004.95 1005.13 1005.04 1005.56 1006.38 1006.79 1006.99 1007.46 1007.97 1009.08 1010.22 1011.11 1011.82 1012.64 1013.13 1013.54 1013.78 1013.82 1013.90 1013.96 1013.97 1014.10 1014.19 1014.46 1014.61 1014.70 1014.83 1014.92 1015.04 1015.19 1015.42 1015.55 1015.62 1015.65 1015.66 1015.75 1015.82 1015.87 1015.92 1015.94 1015.90 1015.91 1015.94 1016.16
1006.74 1006.23 1005.34 1004.74 1004.19 1004.35 1004.46 1005.27 1005.56 1006.33 1007.18 1007.06 1007.30 1008.28 1009.38 1010.45 1011.29 1011.80 1012.25 1012.44 1012.48 1013.26 1013.80 1013.98 1014.10 1014.08 1014.19 1014.13 1014.41 1014.56 1014.78 1014.94 1015.05 1015.13 1015.23 1015.42 1015.65 1015.76 1015.79 1015.76 1015.73 1015.74 1015.79 1016.05 1016.08 1015.97 1015.81 1015.99 1016.08
1005.74 1004.84 1004.92 1004.02 1003.77 1004.05 1004.54 1005.09 1005.75 1006.03 1006.20 1006.55 1007.34 1008.41 1009.45 1010.39 1011.14 1011.66 1011.96 1012.45 1012.91 1013.28 1013.42 1013.62 1013.76 1014.02 1014.01 1014.22 1014.34 1014.47 1014.67 1014.75 1014.86 1014.87 1015.04 1015.29 1015.53 1015.69 1015.75 1015.80 1015.74 1015.76 1015.73 1015.91 1015.95 1015.90 1015.76 1015.74 1015.87
1005.13 1004.43 1004.15 1004.31 1003.75 1003.97 1004.45 1005.18 1005.53 1005.97 1006.21 1006.95 1007.78 1008.77 1009.61 1010.28 1010.76 1011.14 1011.16 1011.73 1012.40 1012.91 1013.08 1013.27 1013.61 1013.77 1013.76 1014.10 1014.23 1014.35 1014.38 1014.40 1014.55 1014.77 1014.88 1015.01 1015.25 1015.47 1015.45 1015.55 1015.60 1015.51 1015.57 1015.68 1015.77 1015.68 1015.68 1015.63 1015.59
1004.63 1004.17 1004.02 1004.52 1003.81 1004.16 1004.83 1005.39 1005.51 1006.05 1006.35 1007.10 1007.91 1008.74 1009.47 1009.91 1010.25 1010.85 1011.49 1011.70 1012.03 1012.38 1012.65 1012.88 1013.29 1013.46 1013.37 1013.80 1014.00 1014.00 1014.12 1014.20 1014.46 1014.54 1014.59 1014.76 1014.85 1015.06 1015.26 1015.44 1015.47 1015.38 1015.40 1015.36 1015.52 1015.51 1015.41 1015.29 1015.26
1004.37 1004.01 1004.41 1004.64 1004.47 1005.14 1005.03 1006.26 1006.31 1006.17 1006.41 1007.23 1008.02 1008.63 1009.07 1009.39 1009.80 1010.01 1010.38 1010.94 1011.14 1011.68 1012.17 1012.41 1012.72 1013.18 1013.34 1013.53 1013.69 1013.81 1013.80 1013.99 1014.15 1014.17 1014.22 1014.29 1014.41 1014.51 1014.78 1015.14 1015.31 1015.02 1015.25 1015.19 1015.17 1015.12 1015.01 1015.09 1015.04
1004.82 1005.08 1005.27 1006.07 1005.38 1006.31 1006.42 1007.49 1007.56 1007.00 1006.98 1007.44 1007.73 1008.07 1008.58 1009.10 1009.26 1009.42 1009.81 1010.24 1010.68 1011.26 1011.66 1012.14 1012.50 1012.81 1013.11 1013.29 1013.45 1013.45 1013.55 1013.66 1013.74 1013.82 1013.77 1013.76 1014.01 1014.06 1014.32 1014.88 1015.09 1015.01 1015.01 1014.89 1015.04 1015.03 1014.98 1014.91 1015.02
1006.09 1006.29 1005.81 1006.44 1005.99 1006.29 1007.21 1008.12 1007.57 1007.29 1007.37 1007.44 1007.67 1007.74 1007.88 1008.19 1008.63 1008.90 1009.04 1009.66 1010.10 1010.36 1011.11 1011.71 1012.04 1012.36 1012.64 1012.95 1013.06 1013.19 1013.13 1013.35 1013.34 1013.42 1013.48 1013.35 1013.55 1013.81 1014.16 1014.55 1014.40 1014.54 1014.84 1014.80 1014.69 1014.70 1014.78 1014.74 1014.76
1006.43 1006.57 1006.35 1006.23 1006.71 1006.34 1007.19 1007.50 1007.51 1007.32 1007.07 1007.17 1007.04 1007.37 1007.63 1007.74 1007.81 1008.05 1008.49 1009.07 1009.55 1010.01 1010.46 1011.05 1011.56 1011.91 1012.37 1012.73 1013.02 1013.26 1013.31 1013.20 1013.10 1013.23 1013.40 1013.33 1013.48 1013.49 1013.68 1013.93 1013.99 1014.30 1014.66 1014.67 1014.49 1014.37 1014.38 1014.37 1014.34
1005.93 1006.45 1006.58 1006.47 1006.46 1005.63 1006.17 1005.74 1005.69 1006.47 1007.28 1007.10 1007.04 1007.05 1007.19 1007.20 1007.12 1007.40 1007.83 1008.38 1009.20 1009.79 1010.32 1010.67 1011.18 1011.57 1012.13 1012.68 1013.16 1013.34 1013.16 1013.01 1012.98 1012.85 1012.70 1012.89 1012.79 1013.03 1013.27 1013.88 1014.12 1014.20 1014.73 1014.61 1014.38 1014.10 1013.89 1013.78 1014.15
1005.47 1006.32 1006.80 1006.80 1006.41 1006.34 1005.82 1006.30 1005.38 1005.85 1006.58 1006.98 1006.92 1006.65 1006.74 1006.95 1007.04 1007.25 1007.59 1008.13 1008.67 1009.14 1009.69 1010.27 1010.49 1011.07 1011.59 1012.02 1012.18 1012.38 1012.55 1012.60 1012.51 1012.34 1012.20 1012.20 1012.57 1012.75 1012.97 1013.40 1013.61 1014.08 1014.02 1014.32 1014.04 1013.57 1013.61 1013.95 1013.91
1004.95 1005.73 1006.15 1006.43 1006.97 1007.10 1007.62 1007.06 1006.02 1006.06 1006.30 1006.70 1006.49 1006.26 1006.18 1006.35 1006.66 1006.81 1007.29 1007.62 1008.16 1008.80 1009.25 1009.52 1009.83 1010.37 1010.88 1011.25 1011.78 1012.23 1012.48 1012.53 1012.64 1012.60 1012.60 1012.38 1012.42 1012.69 1012.99 1013.15 1013.51 1013.44 1013.80 1014.01 1013.90 1013.71 1013.75 1014.00 1013.90
1004.41 1003.90 1004.83 1006.00 1007.59 1008.24 1008.58 1008.40 1006.74 1005.94 1005.92 1005.85 1005.46 1005.51 1005.52 1005.53 1005.77 1006.28 1006.82 1007.25 1007.64 1007.96 1008.46 1008.72 1009.28 1009.90 1010.37 1010.78 1011.36 1011.63 1011.89 1012.48 1012.44 1012.53 1012.54 1012.55 1012.50 1012.67 1012.85 1012.83 1012.88 1013.28 1013.59 1013.75 1013.64 1013.42 1013.45 1013.56 1013.83
1004.22 1003.66 1004.94 1006.51 1008.07 1008.80 1009.62 1009.65 1006.81 1006.37 1005.89 1005.14 1004.62 1004.70 1004.94 1004.73 1005.02 1005.62 1006.23 1006.68 1006.97 1007.42 1007.93 1008.34 1008.91 1009.52 1009.90 1010.34 1010.69 1011.16 1011.70 1012.16 1012.42 1012.77 1012.78 1012.85 1012.84 1012.69 1012.83 1012.92 1013.01 1013.13 1013.38 1013.44 1013.31 1013.46 1013.42 1013.46 1013.71
1003.89 1005.10 1006.50 1008.07 1008.80 1009.99 1009.78 1009.43 1006.93 1006.46 1005.13 1004.29 1003.80 1003.90 1003.91 1004.11 1004.45 1004.96 1005.54 1006.26 1006.67 1007.06 1007.55 1008.10 1008.55 1008.92 1009.44 1009.85 1010.37 1010.79 1011.37 1012.22 1012.63 1012.79 1012.89 1012.97 1013.04 1013.12 1013.06 1012.90 1013.00 1013.07 1013.19 1013.26 1013.36 1013.42 1013.50 1013.63 1013.77
1003.80 1005.69 1007.29 1008.88 1009.91 1010.21 1009.45 1008.93 1005.86 1004.49 1003.98 1003.61 1003.48 1003.23 1003.68 1003.81 1003.98 1004.50 1005.22 1005.84 1006.37 1006.81 1007.12 1007.64 1008.23 1008.48 1008.91 1009.45 1010.01 1010.56 1011.26 1011.87 1012.27 1012.50 1012.77 1012.98 1013.26 1013.36 1013.28 1013.24 1013.24 1013.27 1013.30 1013.42 1013.56 1013.65 1013.79 1013.94 1014.14
1003.68 1004.94 1006.53 1008.03 1009.55 1009.82 1009.30 1007.88 1004.47 1003.90 1003.30 1002.91 1003.06 1003.12 1003.59 1003.79 1003.81 1003.97 1004.21 1004.75 1005.42 1006.16 1006.54 1006.98 1007.81 1008.31 1008.69 1009.22 1009.82 1010.38 1010.98 1011.56 1011.97 1012.21 1012.51 1012.80 1013.09 1013.21 1013.32 1013.50 1013.48 1013.44 1013.42 1013.71 1013.94 1014.16 1014.39 1014.49 1014.65
1003.14 1004.11 1004.74 1007.31 1009.29 1009.54 1008.83 1006.95 1004.09 1002.47 1002.87 1002.54 1002.80 1003.00 1003.23 1003.17 1003.60 1003.85 1004.03 1004.03 1004.59 1005.41 1005.87 1006.39 1007.27 1007.98 1008.39 1008.77 1009.51 1010.21 1010.82 1011.33 1011.74 1011.99 1012.34 1012.67 1012.94 1013.20 1013.54 1013.70 1013.75 1013.72 1013.82 1014.00 1014.26 1014.51 1014.81 1014.87 1015.08
1002.18 1003.03 1004.70 1006.74 1008.68 1009.43 1008.53 1007.08 1004.68 1002.82 1002.23 1002.53 1002.65 1002.71 1002.69 1002.63 1002.98 1003.19 1003.59 1003.86 1004.17 1004.63 1005.16 1005.86 1006.77 1007.54 1007.96 1008.43 1009.09 1009.88 1010.62 1011.25 1011.66 1011.93 1012.37 1012.64 1013.02 1013.34 1013.67 1013.84 1013.98 1014.00 1014.17 1014.39 1014.53 1014.80 1015.05 1015.08 1015.44
1002.30 1002.91 1004.52 1006.03 1007.23 1008.09 1007.89 1006.44 1003.23 1002.25 1001.73 1001.29 1001.16 1001.41 1001.43 1001.37 1001.57 1002.15 1002.65 1003.09 1003.65 1004.30 1004.99 1005.56 1006.33 1007.44 1007.87 1008.25 1008.82 1009.67 1010.56 1011.01 1011.48 1011.89 1012.31 1012.62 1012.95 1013.43 1013.72 1013.94 1014.05 1014.13 1014.35 1014.61 1014.79 1015.09 1015.38 1015.71 1015.98
1001.83 1002.48 1003.79 1005.91 1006.95 1007.33 1006.38 1004.50 1002.35 1001.77 1001.44 1001.41 1000.87 1000.73 1001.08 1001.46 1001.22 1001.38 1002.22 1002.69 1003.40 1003.98 1004.59 1005.22 1006.06 1006.91 1007.38 1007.81 1008.60 1009.44 1010.12 1010.90 1011.46 1011.83 1012.24 1012.60 1013.10 1013.51 1013.70 1013.98 1014.27 1014.55 1014.79 1014.92 1014.95 1015.25 1015.64 1015.98 1016.35
Thickness
5804 5798 5793 5784 5764 5766 5752 5760 5768 5769 5772 5786 5793 5779 5773 5775 5769 5748 5778 5778 5774 5767 5763 5761 5758 5757 5756 5755 5754 5753 5754 5755 5753 5755 5755 5755 5757 5758 5759 5757 5758 5758 5756 5755 5754 5751 5748 5746 5744
5806 5801 5790 5779 5757 5742 5747 5773 5767 5780 5788 5790 5789 5784 5775 5766 5780 5773 5772 5776 5774 5767 5763 5761 5759 5757 5756 5754 5753 5756 5756 5756 5755 5755 5755 5757 5757 5759 5758 5758 5757 5757 5756 5754 5753 5752 5749 5748 5746
5815 5809 5784 5770 5755 5749 5753 5772 5780 5785 5791 5785 5780 5788 5777 5769 5776 5777 5781 5777 5773 5768 5765 5762 5760 5757 5756 5755 5756 5758 5758 5758 5756 5756 5757 5758 5758 5759 5757 5757 5757 5758 5755 5754 5754 5753 5750 5749 5748
5812 5801 5787 5764 5763 5779 5777 5781 5786 5784 5787 5794 5790 5773 5782 5792 5782 5783 5781 5778 5773 5768 5766 5764 5761 5759 5759 5759 5759 5760 5760 5759 5758 5755 5758 5758 5759 5759 5757 5757 5757 5757 5755 5754 5754 5753 5750 5748 5748
5812 5799 5772 5767 5768 5783 5794 5793 5794 5781 5782 5787 5791 5771 5769 5784 5790 5784 5780 5777 5772 5768 5767 5766 5763 5762 5762 5761 5761 5761 5761 5759 5758 5759 5759 5759 5759 5758 5758 5757 5757 5755 5754 5753 5752 5751 5749 5747 5745
5794 5791 5762 5753 5767 5789 5799 5798 5795 5790 5792 5789 5783 5776 5769 5787 5784 5781 5780 5776 5774 5770 5768 5766 5764 5764 5764 5763 5763 5763 5761 5760 5759 5759 5759 5760 5760 5759 5757 5757 5756 5754 5753 5752 5751 5750 5748 5746 5744
5789 5778 5764 5763 5767 5784 5798 5806 5789 5790 5793 5790 5797 5773 5775 5778 5784 5782 5778 5776 5774 5771 5769 5767 5766 5765 5764 5764 5763 5762 5761 5761 5761 5761 5760 5760 5759 5758 5757 5756 5755 5754 5752 5751 5749 5749 5748 5746 5745
5799 5786 5773 5772 5772 5783 5810 5808 5810 5799 5798 5812 5808 5772 5766 5782 5786 5783 5777 5773 5771 5769 5768 5768 5767 5767 5766 5766 5764 5763 5762 5762 5762 5762 5760 5759 5758 5758 5756 5755 5754 5753 5752 5750 5749 5748 5747 5747 5747
5811 5779 5770 5779 5778 5789 5815 5803 5810 5819 5806 5812 5810 5800 5798 5793 5788 5780 5772 5769 5766 5766 5768 5768 5769 5768 5768 5767 5764 5763 5763 5763 5763 5761 5759 5758 5758 5757 5755 5753 5752 5752 5750 5749 5748 5748 5747 5747 5747
5800 5774 5787 5810 5806 5802 5813 5810 5806 5796 5798 5801 5802 5807 5799 5791 5784 5777 5770 5766 5765 5764 5767 5768 5768 5769 5767 5765 5765 5764 5763 5762 5762 5761 5760 5758 5757 5756 5755 5754 5752 5750 5749 5748 5749 5749 5749 5749 5748
5808 5793 5812 5822 5827 5822 5817 5806 5813 5795 5782 5799 5797 5799 5796 5788 5783 5778 5776 5775 5775 5771 5768 5769 5770 5769 5768 5768 5767 5766 5763 5762 5762 5761 5760 5758 5755 5754 5754 5755 5754 5754 5752 5749 5747 5749 5751 5750 5749
5802 5822 5821 5831 5832 5826 5813 5815 5803 5804 5801 5815 5809 5804 5796 5788 5783 5780 5777 5775 5772 5770 5771 5773 5772 5770 5769 5768 5767 5766 5764 5763 5764 5763 5761 5759 5757 5755 5755 5755 5754 5753 5752 5751 5750 5750 5751 5751 5749
5813 5825 5832 5828 5834 5831 5827 5812 5809 5809 5815 5817 5809 5801 5794 5790 5786 5784 5785 5781 5777 5771 5773 5775 5773 5772 5771 5770 5769 5767 5767 5767 5766 5764 5762 5761 5759 5757 5757 5756 5755 5755 5753 5752 5752 5752 5751 5751 5751
5828 5830 5829 5825 5832 5833 5819 5815 5817 5816 5821 5810 5806 5797 5793 5790 5789 5784 5778 5776 5776 5777 5777 5778 5776 5776 5775 5773 5771 5771 5771 5771 5769 5767 5766 5764 5763 5760 5758 5757 5757 5756 5754 5755 5753 5752 5753 5753 5752
5834 5821 5822 5821 5826 5817 5828 5799 5804 5822 5823 5807 5798 5798 5797 5796 5795 5792 5789 5783 5785 5782 5780 5779 5780 5778 5777 5776 5775 5774 5776 5774 5771 5771 5770 5768 5766 5765 5762 5759 5757 5757 5754 5753 5752 5753 5753 5753 5751
5816 5813 5790 5806 5819 5809 5806 5771 5797 5816 5815 5806 5803 5797 5799 5799 5799 5800 5798 5793 5792 5788 5784 5783 5784 5782 5781 5781 5779 5777 5777 5776 5775 5774 5773 5774 5770 5769 5766 5761 5756 5755 5752 5752 5750 5751 5751 5751 5751
5796 5777 5792 5794 5815 5807 5795 5774 5801 5813 5807 5805 5806 5802 5802 5802 5803 5805 5806 5802 5799 5798 5791 5788 5789 5787 5786 5785 5783 5782 5781 5779 5780 5778 5776 5776 5773 5769 5765 5760 5758 5754 5751 5752 5753 5752 5752 5751 5751
5783 5784 5796 5795 5803 5808 5790 5787 5796 5807 5811 5806 5811 5811 5805 5804 5807 5811 5812 5810 5806 5803 5800 5797 5794 5793 5792 5789 5786 5784 5782 5781 5781 5778 5776 5777 5775 5772 5766 5759 5757 5754 5751 5750 5752 5753 5754 5753 5752
5803 5791 5792 5802 5814 5814 5804 5808 5811 5807 5805 5805 5806 5811 5810 5810 5816 5817 5817 5814 5808 5805 5802 5801 5797 5795 5793 5787 5781 5779 5779 5782 5782 5782 5782 5781 5780 5776 5771 5762 5756 5750 5746 5748 5752 5756 5755 5757 5755
5805 5786 5779 5796 5812 5810 5810 5801 5818 5815 5808 5809 5808 5812 5814 5815 5814 5814 5813 5814 5811 5810 5809 5805 5803 5799 5795 5790 5787 5786 5786 5786 5788 5789 5788 5786 5782 5779 5774 5768 5760 5750 5748 5750 5753 5758 5757 5754 5754
5803 5786 5788 5789 5802 5806 5795 5792 5806 5817 5815 5813 5817 5820 5822 5821 5817 5817 5814 5815 5814 5809 5809 5810 5807 5803 5799 5797 5793 5789 5789 5788 5786 5786 5783 5786 5783 5779 5774 5771 5765 5761 5756 5753 5755 5757 5754 5750 5752
5787 5823 5820 5805 5782 5764 5790 5753 5790 5806 5809 5816 5823 5822 5823 5828 5828 5823 5818 5817 5817 5816 5817 5818 5812 5806 5804 5801 5795 5793 5789 5784 5787 5785 5785 5784 5783 5779 5776 5774 5770 5765 5761 5759 5759 5762 5759 5756 5750
5804 5830 5818 5803 5779 5773 5767 5748 5780 5796 5795 5810 5830 5832 5830 5836 5835 5830 5825 5823 5825 5823 5819 5820 5815 5810 5807 5804 5801 5798 5792 5790 5787 5783 5782 5781 5779 5778 5775 5773 5770 5767 5763 5763 5763 5760 5759 5758 5754
5826 5804 5790 5776 5766 5745 5760 5760 5784 5784 5802 5819 5833 5836 5840 5840 5841 5837 5835 5828 5826 5826 5824 5818 5816 5815 5811 5808 5803 5800 5794 5787 5782 5781 5779 5778 5777 5774 5774 5772 5769 5767 5765 5763 5762 5759 5757 5756 5753
5810 5782 5747 5751 5740 5740 5758 5764 5791 5817 5822 5827 5832 5837 5839 5843 5843 5839 5832 5829 5826 5825 5824 5821 5815 5814 5814 5810 5807 5802 5796 5790 5785 5783 5779 5775 5772 5770 5770 5769 5768 5765 5763 5762 5759 5756 5754 5751 5748
5803 5788 5753 5745 5735 5750 5765 5762 5802 5824 5834 5838 5835 5839 5839 5839 5841 5843 5843 5840 5835 5830 5828 5826 5817 5813 5813 5811 5807 5803 5797 5791 5786 5784 5780 5777 5772 5771 5770 5767 5765 5763 5761 5757 5754 5750 5746 5744 5741
5809 5789 5805 5750 5747 5744 5757 5783 5822 5838 5831 5839 5835 5837 5836 5842 5840 5839 5844 5848 5844 5837 5833 5828 5823 5813 5813 5812 5806 5801 5796 5791 5788 5784 5781 5777 5774 5770 5767 5764 5761 5759 5757 5753 5748 5744 5739 5737 5733
5818 5820 5781 5758 5736 5738 5752 5765 5780 5823 5831 5832 5836 5836 5840 5845 5846 5848 5847 5848 5850 5846 5841 5834 5827 5816 5814 5814 5808 5801 5795 5791 5787 5783 5778 5775 5770 5766 5762 5760 5757 5756 5753 5748 5744 5738 5734 5732 5727
5804 5797 5784 5774 5760 5739 5740 5764 5819 5830 5840 5849 5855 5856 5858 5860 5861 5857 5855 5857 5853 5848 5841 5835 5829 5813 5812 5814 5808 5801 5793 5790 5786 5781 5776 5772 5768 5763 5760 5757 5755 5752 5747 5742 5737 5732 5727 5721 5715
5819 5816 5790 5761 5763 5753 5758 5774 5840 5840 5846 5845 5852 5861 5862 5859 5863 5864 5857 5857 5853 5847 5842 5836 5827 5818 5818 5816 5808 5800 5795 5788 5782 5778 5774 5770 5764 5760 5756 5752 5747 5743 5739 5735 5731 5725 5719 5713 5707